Погода в Нелькане

Погода в Нелькане : погода сейчас, прогноз погоды и архив. Всё, что Вы хотите узнать о погоде в Нелькане!

Поиск расширенной информации на нашем сайте:

Полезная информация: Половинка сайт знакомства бесплатный сайт знакомств найти вторую половинку.

Другие новости

Новости СМИ2

Главная страница сайта

Новости сайта

02.10.2013

Напоминаем, что на нашем новом сайте вы можете получить высокодетализированные прогнозы погоды по пунктам России, СНГ и мира (включающие важные для авиации метеовеличины, такие как направление и скорость ветра, видимость, явления погоды, количество и форма облачности, нижняя и верхняя граница облачности), а также ознакомиться с разнообразными материалами по авиационной метеорологии и подборкой полезных ссылок на эту тему.

Сайт Метеоцентр.Азия посвящён разработке технологий оптимизации авиаметеорологического обслуживания, включая проектирование и перспективное создание нескольких автоматизированных авиаметеорологических систем:
- система выпуска высокодетальных прогностических карт явлений погоды для нижнего воздушного пространства по России и ближнему зарубежью;
- система верификации прогнозов TAF (выпускаемых синоптиками официальных АМСГ РФ и ближнего зарубежья) и AUTOTAF (выпускаемых сайтом Метеоцентр.Азия) - выявление ошибок, онлайн-сопоставление с фактической погодой METAR, автоматическое внесение коррективов в прогнозы при резком отклонении фактической погоды от прогноза, подсчёт оправдываемости прогнозов по элементам и в целом;
- система обработки, анализа и отображения авиаметеорологической информации для применения провайдерами метеорологической информации.

Рекомендуем: полировка кузова автомобиля

Погода в Нелькане - сегодня

Время (UTC), дата Ветер
(°,м/с) 
Видим.   Явления Облачность Т
(°С)
Тd
(°С)
f(%) Тe
(°С)
Pmin
(гПа)
dP
(гПа)
Po
(мм)
O2
(г/м3)
Тmin Tmax R s Состояние
почвы
21 26.03.17 180 (Ю) 20000 м    ясно 
-15 -17 85 -17  1020.4  734  314  -17.8      59  равномерный
сухой снег
100% 
00 27.03.17 180 (Ю) 20000 м    ясно 
-11 -15.4 70 -13  1019.4  0.1  734  309  -17.8         
03 27.03.17 160 (Ю) 20000 м    3/3 1000 м 
[Cu med, cong]
-0.5 -10.3 47 -1  1015.2  -2.4  732  296           
06 27.03.17 160 (Ю) 20000 м    6/4 1000 м средняя 
[Cu med, cong|Ac trans]
+1.3 -8.6 48 +2  1012.8  -2  730  294           
09 27.03.17 тихо ()   20000 м    5/3 1000 м средняя 
[Sc|Ac trans]
-0.6 -9.1 53 -1  1012.7  -0.4  730  296    +2       
12 27.03.17 тихо ()   20000 м    3/0 средняя 
[Ac trans]
-4.6 -8.5 74 -5  1013.3  -0.2  730  300           
15 27.03.17 тихо ()   20000 м    3/0 средняя 
[Ac trans]
-10 -11.3 90 -10  1013.8  -0.2  730  306           
18 27.03.17 тихо ()   20000 м    ясно 
-13.3 -14.6 90 -13  1013.8  -0.4  729  310           
21 27.03.17 тихо ()   20000 м    3/0 верхняя 
[Ci sp]
-15.5 -17.4 85 -16  1014.7  0.5  730  313  -15.5      58  равномерный
сухой снег
100% 
00 28.03.17 020 (С) 20000 м    6/0 верхняя 
[Ci sp]
-11.3 -14.8 75 -13  1014.8  0.7  730  308  -15.5         
03 28.03.17 160 (Ю) 20000 м    3/3 1000 м 
[Cu med, cong]
+1.5 -9.1 45 +2  1012.1  -0.7  730  293           
06 28.03.17 180 (Ю) 20000 м    6/3 1000 м верхняя 
[Cu med, cong|Ci sp]
+3.5 -9.6 38 +3  1011  -0.8  729  291           
09 28.03.17 250 (З) 20000 м    8/0 средняя, верхняя 
[Ac trans|Ci sp]
+1.6 -8 49 +2  1012.1  0.8  730  293    +3.5       
12 28.03.17 тихо ()   20000 м    6/0 верхняя 
[Ci sp]
-1.6 -7.6 64 -2  1014.2  1.6  731  297           
15 28.03.17 тихо ()   20000 м    10/0 верхняя 
[Cs]
-3.6 -7.6 74 -4  1015.1  0.6  731  299           
18 28.03.17 020 (С) 20000 м    8/0 верхняя 
[Ci sp]
-5.5 -9.3 75 -5  1016.4  732  302           
21 28.03.17 340 (С) 20000 м    8/5 1000 м средняя 
[Sc|Ac trans]
-3.6 -7.6 74 -5  1017.3  1.1  733  300  -5.5      57  равномерный
сухой снег
100% 
00 29.03.17 340 (С) 20000 м    8/6 1000 м средняя 
[Sc|Ac trans]
-1.3 -7.6 62 -4  1018.8  1.7  734  298  -5.5         
03 29.03.17 340 (С) 20000 м    10/8 1000 м верхняя 
[Sc|Cs]
+0.6 -9.3 47 -2  1018.7  0.2  734  296           
06 29.03.17 320 (СЗ) 20000 м    6/3 1000 м верхняя 
[Cu med, cong|Ci sp]
+2.1 -10.4 39 +1  1018.6  734  295           
09 29.03.17 320 (СЗ) 20000 м    3/0 средняя 
[Ac trans]
-0.3 -12 41 -1  1019.9  735  298    +2.1       
12 29.03.17 320 (СЗ) 20000 м    ясно 
-2.3 -13.1 43 -3  1021.9  1.7  736  300           
15 29.03.17 180 (Ю) 20000 м    ясно 
-5.4 -12.4 58 -5  1022.6  0.2  737  304           
18 29.03.17 230 (ЮЗ) 20000 м    ясно 
-7.6 -13.1 65 -9  1023.4  0.5  737  307           
21 29.03.17 200 (Ю) 20000 м    ясно 
-11.5 -15 75 -13  1024.3  0.2  737  311  -11.5      56  равномерный
сухой снег
100% 
Время (UTC), дата Ветер
(°,м/с) 
Видим.   Явления Облачность Т
(°С)
Тd
(°С)
f(%) Тe
(°С)
Pmin
(гПа)
dP
(гПа)
Po
(мм)
O2
(г/м3)
Тmin Tmax R s Состояние
почвы

Для получения пояснительной информации подведите курсор к названию столбца.

ПОГОДА в Нелькане - архив

Всё, что Вы хотите узнать о погоде в Нелькане - удобно и подробно!

Выберите нужную дату (начиная с 1 января 2015* года) и нажмите кнопку "Найти".
Будут отображены архивные сводки погоды по пункту Нелькан, начиная с указанной даты.


Отображать данные в формате CSV (для использования в таблицах Excel)


Внимание! Наш архив погоды предназначен исключительно для личного некоммерческого использования в познавательных целях. Если Вам необходимы официальные справки о состоянии погоды (для производственных, юридических, коммерческих и т.п. целей), обращайтесь в органы Росгидромета.

*Примечание: данная дата относится к архиву по метеостанциям СССР (Россия, СНГ, Балтия).
Архив по метеостанциям Зарубежной Европы и Азии (кроме Китая) хранится 10 дней, по другим регионам земного шара (Китай, Африка, Америка, Австралия, Океания) - 1 день.

Нелькан - район местоположения метеостанции


Название, широта, долгота, высота метеостанции:
Нелькан 57.7°ш. 136.2°д. 305 м над ур. моря [Российская Федерация]

Дополнительная информация

В oтличие oт бoльшинства пoгoдных сайтoв мы публикуем пoдрoбную метеoинфoрмацию в детальнoм прoфессиoнальнoм фoрмате.

Характеристики температуры и влажнoсти вoздуха измеряются на высoте 2 м в тени вдали oт зданий и деревьев.
Скoрoсть ветра измеряется на высoте 10 м (на урoвне рoста челoвека скoрoсть ветра ниже в 1.5-2 раза). Если метеoстанция нахoдится в гoрoде или в лесу, тo скoрoсть ветра занижена на 2-4 м/с пo сравнению с oткрытым местoм. Скoрoсть ветра над акватoриями крупных рек и oзёр, а также на вершинах хoлмoв на 2-5 м/с выше, чем в oбычных услoвиях.
Атмoсфернoе давление в разных тoчках местнoсти мoжет значительнo oтличаться oт давления на метеoстанции, в зависимoсти oт услoвий рельефа (при пoдъёме на 10 м давление пoнижается примернo на 1 мм рт.ст.).